CW5066 Weather Reports


time (UTC)temp
F
wind
direction
speed
knots
gust
knots
rain 1hr
in
rain 24hr
in
rain mn
in
humidity
%
barometer
mb
20260904223517 73 90 1.7 4.3 0.00 0.00 0.00 28 1026.8
20260904222517 71 0.0 1.7 0.00 0.00 0.00 30 1026.5
20260904221517 71 45 0.9 3.5 0.00 0.00 0.00 30 1026.3
20260904220537 72 68 1.7 7.0 0.00 0.00 0.00 28 1026.2
20260904215517 72 68 0.9 2.6 0.00 0.00 0.00 29 1026.1
20260904214557 72 68 1.7 7.0 0.00 0.00 0.00 28 1026.1
20260904213517 73 68 0.9 4.3 0.00 0.00 0.00 28 1026.8
20260904212517 73 113 1.7 5.2 0.00 0.00 0.00 27 1026.8
20260904211517 74 45 0.9 2.6 0.00 0.00 0.00 26 1026.8
20260904210517 75 45 1.7 7.8 0.00 0.00 0.00 26 1026.7
20260904205517 76 90 1.7 6.1 0.00 0.00 0.00 25 1027.4
20260904204517 76 23 1.7 5.2 0.00 0.00 0.00 25 1027.5
20260904203517 75 23 1.7 6.1 0.00 0.00 0.00 25 1027.5
20260904202517 76 68 0.9 5.2 0.00 0.00 0.00 25 1027.6
20260904201517 78 0 0.9 3.5 0.00 0.00 0.00 24 1028.2
20260904200516 79 23 3.5 10.4 0.00 0.00 0.00 22 1029.4
20260904195517 79 45 0.9 5.2 0.00 0.00 0.00 23 1029.5
20260904194517 79 23 2.6 7.8 0.00 0.00 0.00 23 1029.6
20260904193516 78 90 4.3 13.9 0.00 0.00 0.00 24 1029.8
20260904192517 76 23 4.3 12.2 0.00 0.00 0.00 25 1029.0
20260904191516 74 45 1.7 4.3 0.00 0.00 0.00 26 1028.5
20260904190517 75 23 0.9 4.3 0.00 0.00 0.00 25 1028.5
20260904185516 74 315 2.6 7.8 0.00 0.00 0.00 28 1028.3
20260904184516 76 90 2.6 7.8 0.00 0.00 0.00 25 1029.0
20260904183536 75 68 2.6 7.0 0.00 0.00 0.00 26 1029.0
20260904182556 74 23 2.6 11.3 0.00 0.00 0.00 26 1028.6
20260904181516 73 338 4.3 8.7 0.00 0.00 0.00 26 1028.6
20260904180517 72 68 2.6 7.0 0.00 0.00 0.00 29 1028.5
20260904175516 70 23 4.3 8.7 0.00 0.00 0.00 31 1028.2
20260904174516 69 203 3.5 7.8 0.00 0.00 0.00 29 1027.2
20260904173516 69 180 1.7 7.8 0.00 0.00 0.00 31 1027.6
20260904172516 68 293 2.6 7.0 0.00 0.00 0.00 30 1026.8
20260904171516 67 225 2.6 7.0 0.00 0.00 0.00 30 1027.1
20260904170516 69 293 1.7 5.2 0.00 0.00 0.00 30 1027.6
20260904165516 68 0.0 1.7 0.00 0.00 0.00 32 1027.6
20260904164557 67 338 3.5 8.7 0.00 0.00 0.00 30 1026.8
20260904163516 66 293 2.6 7.0 0.00 0.00 0.00 30 1026.8
20260904162516 66 270 2.6 6.1 0.00 0.00 0.00 30 1026.7
20260904161516 66 270 2.6 7.0 0.00 0.00 0.00 30 1026.7
20260904160516 65 315 1.7 7.0 0.00 0.00 0.00 31 1026.6
20260904155516 65 293 0.9 2.6 0.00 0.00 0.00 33 1026.6
20260904154516 64 293 1.7 4.3 0.00 0.00 0.00 33 1026.1
20260904153636 64 248 1.7 5.2 0.00 0.00 0.00 35 1026.7
20260904152516 63 270 0.9 2.6 0.00 0.00 0.00 35 1026.1
20260904151516 63 0.0 1.7 0.00 0.00 0.00 36 1026.1
20260904150516 62 0.0 1.7 0.00 0.00 0.00 37 1025.6
20260904145516 60 0.0 2.6 0.00 0.00 0.00 38 1025.6
20260904144516 59 225 0.9 1.7 0.00 0.00 0.00 39 1024.9
20260904143516 59 225 0.9 2.6 0.00 0.00 0.00 39 1024.8
20260904142536 58 225 0.9 2.6 0.00 0.00 0.00 40 1024.9
20260904141556 57 203 0.9 1.7 0.00 0.00 0.00 40 1024.9
20260904140515 56 248 0.9 2.6 0.00 0.00 0.00 40 1025.4
20260904135536 56 270 1.7 3.5 0.00 0.00 0.00 40 1025.1
20260904134516 56 248 2.6 4.3 0.00 0.00 0.00 40 1024.9
20260904133515 56 248 2.6 7.0 0.00 0.00 0.00 40 1025.9
20260904132516 56 248 2.6 4.3 0.00 0.00 0.00 39 1025.1
20260904131536 55 248 2.6 4.3 0.00 0.00 0.00 39 1025.1
20260904130516 55 248 1.7 3.5 0.00 0.00 0.00 39 1026.1
20260904125516 56 248 1.7 3.5 0.00 0.00 0.00 38 1026.5
20260904124536 56 225 1.7 3.5 0.00 0.00 0.00 37 1026.3
20260904123515 56 203 2.6 4.3 0.00 0.00 0.00 37 1027.4
20260904122515 57 203 3.5 5.2 0.00 0.00 0.00 36 1027.9
20260904121515 57 180 3.5 7.0 0.00 0.00 0.00 37 1027.1
20260904120515 56 180 3.5 4.3 0.00 0.00 0.00 37 1027.2
20260904115515 56 158 1.7 2.6 0.00 0.00 0.00 37 1027.2
20260904114535 56 0.0 1.7 0.00 0.00 0.00 36 1027.2
20260904113515 56 0.0 1.7 0.00 0.00 0.00 36 1027.8
20260904112515 57 158 0.9 1.7 0.00 0.00 0.00 36 1028.0
20260904111515 57 180 0.9 2.6 0.00 0.00 0.00 35 1027.8
20260904110517 58 135 0.9 1.7 0.00 0.00 0.00 35 1027.7
20260904105518 57 0.0 1.7 0.00 0.00 0.00 35 1027.7
20260904104517 57 315 0.9 2.6 0.00 0.00 0.00 35 1027.7
20260904103517 57 0.0 1.7 0.00 0.00 0.00 36 1027.1
20260904102517 57 180 1.7 2.6 0.00 0.00 0.00 36 1027.0
20260904101517 57 203 1.7 3.5 0.00 0.00 0.00 36 1027.2
20260904100517 57 180 1.7 2.6 0.00 0.00 0.00 36 1028.5
20260904095517 57 180 1.7 3.5 0.00 0.00 0.00 35 1028.5
20260904094517 57 203 1.7 2.6 0.00 0.00 0.00 36 1028.4
20260904093517 57 180 1.7 2.6 0.00 0.00 0.00 36 1027.2
20260904092517 57 203 1.7 2.6 0.00 0.00 0.00 35 1027.1
20260904091517 58 203 0.9 2.6 0.00 0.00 0.00 35 1027.1
20260904090537 57 0.0 1.7 0.00 0.00 0.00 36 1027.2
20260904085517 57 0.0 1.7 0.00 0.00 0.00 37 1027.2
20260904084517 56 225 0.9 2.6 0.00 0.00 0.00 37 1027.2
20260904083517 57 225 1.7 4.3 0.00 0.00 0.00 36 1026.7
20260904082517 57 225 1.7 3.5 0.00 0.00 0.00 35 1026.6
20260904081517 58 225 1.7 3.5 0.00 0.00 0.00 35 1026.7
20260904080517 58 225 0.9 2.6 0.00 0.00 0.00 35 1026.2
20260904075517 59 225 1.7 2.6 0.00 0.00 0.00 36 1026.1
20260904074516 60 0.0 1.7 0.00 0.00 0.00 38 1026.9
20260904073516 60 180 2.6 3.5 0.00 0.00 0.00 39 1026.9
20260904072537 60 180 0.9 2.6 0.00 0.00 0.00 38 1027.0
20260904071516 60 180 1.7 3.5 0.00 0.00 0.00 38 1027.0
20260904070517 60 180 0.9 2.6 0.00 0.00 0.00 38 1026.5
20260904065517 60 158 0.9 2.6 0.00 0.00 0.00 38 1026.5
20260904064517 60 180 1.7 2.6 0.00 0.00 0.00 39 1026.6
20260904063536 59 158 1.7 1.7 0.00 0.00 0.00 40 1025.4
20260904062517 59 135 0.9 1.7 0.00 0.00 0.00 40 1025.5
20260904061517 59 135 1.7 2.6 0.00 0.00 0.00 41 1025.6
20260904060516 59 158 2.6 3.5 0.00 0.00 0.00 41 1025.5
20260904055517 59 180 1.7 2.6 0.00 0.00 0.00 41 1025.6
20260904054517 59 180 1.7 2.6 0.00 0.00 0.00 41 1025.6
20260904053517 58 0.0 1.7 0.00 0.00 0.00 42 1025.0
20260904052517 58 158 0.9 2.6 0.00 0.00 0.00 43 1025.0
20260904051517 58 203 1.7 2.6 0.00 0.00 0.00 43 1025.0
20260904050517 58 203 0.9 1.7 0.00 0.00 0.00 43 1024.3
20260904045517 58 203 0.9 1.7 0.00 0.00 0.00 44 1024.5
20260904044517 59 0.0 1.7 0.00 0.00 0.00 43 1024.6
20260904043537 59 0 0.9 1.7 0.00 0.00 0.00 43 1024.5
20260904042517 59 23 1.7 3.5 0.00 0.00 0.00 44 1024.7
20260904041517 59 0 2.6 7.0 0.00 0.00 0.00 43 1024.7
20260904040517 59 0 2.6 7.0 0.00 0.00 0.00 43 1024.2
20260904035517 59 0 2.6 6.1 0.00 0.00 0.00 43 1024.3
20260904034516 60 0 2.6 6.1 0.00 0.00 0.00 43 1024.5
20260904033537 60 23 2.6 6.1 0.00 0.00 0.00 43 1023.9
20260904032517 60 0 3.5 7.0 0.00 0.00 0.00 43 1024.3
20260904031536 60 0 2.6 6.1 0.00 0.00 0.00 41 1024.1
20260904030516 60 0 2.6 6.1 0.00 0.00 0.00 41 1024.3
20260904025516 60 0 3.5 7.8 0.00 0.00 0.00 40 1023.6
20260904024536 60 0 4.3 9.6 0.00 0.00 0.00 39 1023.6
20260904023516 60 0 3.5 8.7 0.00 0.00 0.00 39 1023.5
20260904022537 61 23 2.6 6.1 0.00 0.00 0.00 38 1022.7
20260904021516 61 23 1.7 4.3 0.00 0.00 0.00 38 1023.2
20260904020536 62 23 1.7 3.5 0.00 0.00 0.00 38 1022.9
20260904015516 62 23 1.7 4.3 0.00 0.00 0.00 37 1022.3
20260904014517 63 23 0.9 3.5 0.00 0.00 0.00 36 1022.9
20260904013516 65 45 0.9 4.3 0.00 0.00 0.00 34 1023.4
20260904012517 66 68 0.9 3.5 0.00 0.00 0.00 33 1023.5
20260904011516 67 23 1.7 4.3 0.00 0.00 0.00 32 1024.1
20260904010516 68 23 0.9 2.6 0.00 0.00 0.00 32 1024.1
20260904005516 69 45 0.9 1.7 0.00 0.00 0.00 31 1024.7
20260904004516 71 68 0.9 2.6 0.00 0.00 0.00 30 1025.3
20260904003516 72 0.0 1.7 0.00 0.00 0.00 29 1025.5
20260904002516 74 23 1.7 4.3 0.00 0.00 0.00 27 1026.1
20260904001516 76 45 0.9 3.5 0.00 0.00 0.00 26 1026.9
20260904000516 77 68 1.7 5.2 0.00 0.00 0.00 26 1027.5
20260903235516 77 0 1.7 6.1 0.00 0.00 0.00 24 1027.3
20260903234536 77 23 3.5 7.8 0.00 0.00 0.00 25 1027.4
20260903233516 77 45 2.6 7.8 0.00 0.00 0.00 26 1027.5
20260903232516 77 23 3.5 7.0 0.00 0.00 0.00 26 1026.8
20260903231516 78 23 1.7 6.1 0.00 0.00 0.00 25 1027.2
20260903230516 78 23 2.6 7.8 0.00 0.00 0.00 26 1027.4
20260903225516 78 23 3.5 7.8 0.00 0.00 0.00 25 1027.4
20260903224516 77 23 2.6 8.7 0.00 0.00 0.00 27 1026.9